Nueva Ocotepeque, Honduras

4:52 AM CST on June 27, 2017 (GMT -0600)
Nueva Ocotepeque

Weather History for MHSC - November, 2012

Change the Weather History Date:

Sunday, November 4, 2012

  Actual Average (MHSR) Record (MHSR)
Temperature  
Mean Temperature 75 °F -  
Max Temperature 84 °F 72 °F 80 °F (1998)
Min Temperature 66 °F 61 °F 57 °F (2003)
Cooling Degree Days 10    
Growing Degree Days 25 (Base 50)    
Moisture  
Dew Point 68 °F    
Average Humidity 78    
Maximum Humidity 95    
Minimum Humidity 59    
Precipitation  
Precipitation 0.00 in - - ()
Sea Level Pressure  
Sea Level Pressure 29.89 in    
Wind  
Wind Speed 10 mph ()    
Max Wind Speed 16 mph    
Max Gust Speed -    
Visibility 6.2 miles    
Events      
Averages and records for this station are not official NWS values.
T = Trace of Precipitation, MM = Missing Value Source: Averaged Metar Reports

Daily Weather History Graph

Daily Weather History Graph

Search for Another Location

Airport or City:

Trip Planner

Search our weather history database for the weather conditions in past years. The results will help you decide how hot, cold, wet, or windy it might be!

Date:

Astronomy

Nov. 04, 2012 Rise Set
Actual Time 5:53 AM CST 5:27 PM CST
Civil Twilight 5:31 AM CST 5:49 PM CST
Nautical Twilight 5:05 AM CST 6:14 PM CST
Astronomical Twilight 4:40 AM CST 6:40 PM CST
Moon 10:12 PM CST (11/4) 10:27 AM CST (11/4)
Length of Visible Light 12h 18m
Length of Day
11h 34m
Waning Gibbous, 72% of the Moon is Illuminated
Nov 4
Waning Gibbous
Nov 6
Last Quarter
Nov 13
New
Nov 20
First Quarter
Nov 28
Full

Hourly Weather History & Observations

Time (CST) Temp. Heat Index Dew Point Humidity Pressure Visibility Wind Dir Wind Speed Gust Speed Precip Events Conditions
12:55 AM 70.0 °F - 67.3 °F 91% 29.91 in 6.2 mi NNW 12.7 mph - N/A   Overcast
1:55 AM 70.2 °F - 66.2 °F 87% 29.90 in 6.2 mi North 13.8 mph - N/A   Mostly Cloudy
2:55 AM 69.4 °F - 65.8 °F 88% 29.89 in 6.2 mi NNW 12.7 mph - N/A   Overcast
3:55 AM 69.3 °F - 65.3 °F 87% 29.90 in 6.2 mi North 13.8 mph - N/A   Overcast
4:55 AM 67.8 °F - 65.7 °F 93% 29.91 in 6.2 mi NNW 11.5 mph - N/A   Clear
5:55 AM 67.6 °F - 65.7 °F 93% 29.93 in 6.2 mi NNW 12.7 mph - N/A   Scattered Clouds
6:00 AM 66 °F - 61 °F 80%  in 6 mi North 6.9 mph - -   Haze
6:55 AM 69.8 °F - 65.8 °F 87% 29.94 in 6.2 mi NNW 12.7 mph - N/A   Overcast
7:55 AM 72.5 °F - 65.8 °F 80% 29.95 in 6.2 mi North 12.7 mph - N/A   Overcast
8:55 AM 75.7 °F - 65.7 °F 71% 29.94 in 6.2 mi NNW 16.1 mph - N/A   Mostly Cloudy
9:00 AM 73 °F - 66 °F 72%  in 6 mi North 9.2 mph - -   Haze
9:55 AM 75.7 °F - 66.0 °F 72% 29.94 in 6.2 mi North 11.5 mph - N/A   Overcast
10:55 AM 80.4 °F 82.8 °F 67.3 °F 64% 29.91 in 6.2 mi North 11.5 mph - N/A   Mostly Cloudy
11:55 AM 79.7 °F - 66.9 °F 65% 29.88 in 6.2 mi NNW 10.4 mph - N/A   Overcast
12:00 PM 81 °F - 70 °F 63%  in 6 mi North 11.5 mph - -   Haze
12:55 PM 81.7 °F 84.2 °F 67.1 °F 61% 29.86 in 6.2 mi North 4.6 mph - N/A   Overcast
1:55 PM 83.7 °F 86.7 °F 67.8 °F 59% 29.83 in 6.2 mi NNW 9.2 mph - N/A   Mostly Cloudy
2:55 PM 83.5 °F 87.2 °F 69.4 °F 62% 29.81 in 6.2 mi North 11.5 mph - N/A   Overcast
3:00 PM 83 °F - 73 °F 65%  in 6 mi North 9.2 mph - -   Haze
3:55 PM 82.6 °F 85.5 °F 68.0 °F 61% 29.81 in 6.2 mi North 8.1 mph - N/A   Mostly Cloudy
4:55 PM 79.5 °F - 69.1 °F 70% 29.83 in 6.2 mi NNW 11.5 mph - N/A   Mostly Cloudy
5:55 PM 76.5 °F - 68.9 °F 77% 29.87 in 6.2 mi NNW 11.5 mph - N/A   Overcast
6:00 PM 76 °F - 71 °F 80%  in 6 mi North 6.9 mph - -   Haze
6:25 PM 77.0 °F - 68.0 °F 74% 29.88 in 6.2 mi North 8.1 mph - N/A   Light Drizzle
6:55 PM 73.2 °F - 70.9 °F 92% 29.90 in 6.2 mi NNW 8.1 mph - 0.00 in   Light Drizzle
7:55 PM 71.4 °F - 69.1 °F 92% 29.91 in 6.2 mi NNW 9.2 mph - 0.00 in   Mostly Cloudy
8:55 PM 71.2 °F - 68.4 °F 91% 29.91 in 6.2 mi NNW 12.7 mph - N/A   Overcast
9:55 PM 72.3 °F - 68.7 °F 88% 29.92 in 6.2 mi North 8.1 mph - N/A   Overcast
10:55 PM 72.1 °F - 69.1 °F 90% 29.90 in 6.2 mi NNW 9.2 mph - N/A   Overcast
11:55 PM 70.9 °F - 69.4 °F 95% 29.90 in 6.2 mi North 6.9 mph - N/A   Overcast